Location: Coleto Creek Park and Reservoir
(28.7196°N, 97.1740°W)
Time: 07:45:57
(UTC-06:00)

Hubble Space Telescope - Visible Passes

Search period start: 19 December 2014 00:00
Search period end: 29 December 2014 00:00
Orbit: 545 x 549 km, 28.5° (Epoch: 18 December)

Date Brightness Start Highest point End Pass type
(mag) Time Alt. Az. Time Alt. Az. Time Alt. Az.
19 Dec 0.9 18:51:41 10° W 18:55:50 70° S 18:57:46 30° ESE visible
20 Dec 1.2 18:44:00 10° W 18:48:06 60° SSW 18:50:50 20° ESE visible
20 Dec 4.0 20:25:58 10° WSW 20:26:22 12° WSW 20:26:22 12° WSW visible
21 Dec 1.5 18:36:18 10° W 18:40:20 50° SSW 18:44:01 12° ESE visible
21 Dec 3.8 20:18:41 10° WSW 20:19:34 13° SW 20:19:34 13° SW visible
22 Dec 2.0 18:28:38 10° W 18:32:33 40° SSW 18:36:28 10° SE visible
22 Dec 3.7 20:11:45 10° SW 20:12:54 12° SW 20:12:54 12° SW visible
23 Dec 2.4 18:21:01 10° W 18:24:45 32° SSW 18:28:28 10° SE visible
24 Dec 2.9 18:13:27 10° W 18:16:55 25° SSW 18:20:22 10° SE visible
25 Dec 3.4 18:06:00 10° WSW 18:09:03 20° SSW 18:12:06 10° SSE visible
